Tiempo cada hora Baronissi

Hoy, 7 Marzo, Domingo

Tiempo Temperatura Precipitaciones Viento Presión Humedad
00:00 +7°C° 0 mm 3 mps 747 mmHg 77%
01:00 +7°C° 0 mm 3 mps 747 mmHg 75%
02:00 +7°C° 0 mm 3 mps 747 mmHg 74%
03:00 +7°C° 0 mm 3 mps 746 mmHg 72%
04:00 +7°C° 0 mm 2 mps 746 mmHg 71%
05:00 +7°C° 0 mm 2 mps 746 mmHg 72%
06:00 +7°C° 0 mm 2 mps 746 mmHg 74%
07:00 +7°C° 0 mm 3 mps 746 mmHg 74%
08:00 +9°C° 0 mm 2 mps 746 mmHg 70%
09:00 +12°C° 0 mm 2 mps 746 mmHg 65%
10:00 +14°C° 0 mm 1 mps 746 mmHg 61%
11:00 +14°C° 0 mm 1 mps 746 mmHg 60%
12:00 +15°C° 0 mm 1 mps 746 mmHg 59%
13:00 +15°C° 0 mm 1 mps 745 mmHg 58%
14:00 +15°C° 0.1 mm 1 mps 745 mmHg 59%
15:00 +15°C° 0.1 mm 1 mps 744 mmHg 60%
16:00 +15°C° 0.1 mm 1 mps 744 mmHg 62%
17:00 +14°C° 0 mm 1 mps 743 mmHg 67%
18:00 +13°C° 0 mm 1 mps 743 mmHg 72%
19:00 +12°C° 0 mm 1 mps 743 mmHg 77%
20:00 +11°C° 0 mm 1 mps 743 mmHg 78%
21:00 +11°C° 0 mm 1 mps 743 mmHg 79%
22:00 +11°C° 0 mm 1 mps 743 mmHg 80%
23:00 +10°C° 0 mm 1 mps 743 mmHg 80%

Mañana, 8 Marzo, Lunes

Tiempo Temperatura Precipitaciones Viento Presión Humedad
00:00 +10°C° 0 mm 1 mps 742 mmHg 80%
01:00 +10°C° 0 mm 1 mps 742 mmHg 80%
02:00 +10°C° 0 mm 1 mps 741 mmHg 79%
03:00 +10°C° 0 mm 1 mps 741 mmHg 78%
04:00 +10°C° 0 mm 1 mps 740 mmHg 78%
05:00 +10°C° 0 mm 1 mps 740 mmHg 77%
06:00 +10°C° 0 mm 1 mps 740 mmHg 76%
07:00 +10°C° 0 mm 1 mps 740 mmHg 75%
08:00 +11°C° 0 mm 1 mps 740 mmHg 72%
09:00 +12°C° 0 mm 1 mps 740 mmHg 69%
10:00 +13°C° 0 mm 1 mps 740 mmHg 66%
11:00 +13°C° 0.2 mm 1 mps 740 mmHg 67%
12:00 +13°C° 0.2 mm 1 mps 739 mmHg 68%
13:00 +14°C° 0.2 mm 1 mps 739 mmHg 69%
14:00 +14°C° 0.1 mm 1 mps 739 mmHg 69%
15:00 +14°C° 0.1 mm 1 mps 739 mmHg 70%
16:00 +14°C° 0.1 mm 1 mps 739 mmHg 70%
17:00 +13°C° 0.1 mm 1 mps 739 mmHg 73%
18:00 +13°C° 0.1 mm 1 mps 739 mmHg 75%
19:00 +12°C° 0.1 mm 1 mps 739 mmHg 78%
20:00 +12°C° 0 mm 1 mps 739 mmHg 80%
21:00 +11°C° 0 mm 1 mps 739 mmHg 81%
22:00 +11°C° 0 mm 1 mps 739 mmHg 82%
23:00 +11°C° 0 mm 1 mps 739 mmHg 82%

Pasado mañana, 9 Marzo, Martes

Tiempo Temperatura Precipitaciones Viento Presión Humedad
00:00 +10°C° 0 mm 1 mps 738 mmHg 82%
01:00 +10°C° 0 mm 1 mps 738 mmHg 81%
02:00 +10°C° 0 mm 1 mps 738 mmHg 82%
03:00 +10°C° 0 mm 1 mps 738 mmHg 82%
04:00 +10°C° 0 mm 1 mps 737 mmHg 82%
05:00 +10°C° 0.1 mm 1 mps 737 mmHg 83%
06:00 +9°C° 0.1 mm 2 mps 737 mmHg 84%
07:00 +10°C° 0.1 mm 2 mps 737 mmHg 85%
08:00 +10°C° 0.3 mm 3 mps 737 mmHg 84%
09:00 +10°C° 0.3 mm 3 mps 737 mmHg 83%
10:00 +11°C° 0.3 mm 3 mps 737 mmHg 83%
11:00 +11°C° 3.7 mm 4 mps 737 mmHg 87%
12:00 +11°C° 3.7 mm 4 mps 737 mmHg 91%
13:00 +11°C° 3.7 mm 4 mps 737 mmHg 95%
14:00 +11°C° 5 mm 4 mps 736 mmHg 95%
15:00 +11°C° 5 mm 3 mps 736 mmHg 96%
16:00 +11°C° 5 mm 3 mps 736 mmHg 96%
17:00 +12°C° 1.7 mm 2 mps 736 mmHg 95%
18:00 +12°C° 1.7 mm 2 mps 736 mmHg 94%
19:00 +12°C° 1.7 mm 1 mps 736 mmHg 94%
20:00 +10°C° 0.9 mm 2 mps 737 mmHg 94%
21:00 +10°C° 0.9 mm 2 mps 737 mmHg 94%
22:00 +10°C° 0.9 mm 2 mps 737 mmHg 95%
23:00 +10°C° 1 mm 2 mps 737 mmHg 93%

10 Marzo, Miércoles

Tiempo Temperatura Precipitaciones Viento Presión Humedad
00:00 +10°C° 1 mm 2 mps 737 mmHg 92%
01:00 +11°C° 1 mm 1 mps 737 mmHg 91%
02:00 +10°C° 0.3 mm 2 mps 737 mmHg 90%
03:00 +9°C° 0.3 mm 2 mps 737 mmHg 89%
04:00 +9°C° 0.3 mm 2 mps 737 mmHg 87%
05:00 +9°C° 0.2 mm 2 mps 737 mmHg 87%
06:00 +9°C° 0.2 mm 3 mps 738 mmHg 86%
07:00 +9°C° 0.2 mm 3 mps 738 mmHg 85%
08:00 +9°C° 0 mm 3 mps 739 mmHg 80%
09:00 +9°C° 0 mm 3 mps 739 mmHg 75%
10:00 +10°C° 0 mm 3 mps 740 mmHg 70%
11:00 +11°C° 0 mm 3 mps 740 mmHg 65%
12:00 +12°C° 0 mm 3 mps 740 mmHg 60%
13:00 +13°C° 0 mm 3 mps 741 mmHg 54%
14:00 +13°C° 0 mm 3 mps 741 mmHg 54%
15:00 +12°C° 0 mm 4 mps 741 mmHg 54%
16:00 +12°C° 0 mm 4 mps 741 mmHg 54%
17:00 +11°C° 0 mm 4 mps 741 mmHg 57%
18:00 +9°C° 0 mm 3 mps 742 mmHg 60%
19:00 +8°C° 0 mm 3 mps 742 mmHg 63%
20:00 +7°C° 0 mm 3 mps 743 mmHg 63%
21:00 +7°C° 0 mm 3 mps 744 mmHg 63%
22:00 +7°C° 0 mm 3 mps 745 mmHg 63%
23:00 +5°C° 0 mm 3 mps 745 mmHg 65%

11 Marzo, Jueves

Tiempo Temperatura Precipitaciones Viento Presión Humedad
00:00 +5°C° 0 mm 3 mps 745 mmHg 66%
01:00 +5°C° 0 mm 3 mps 746 mmHg 67%
02:00 +6°C° 0 mm 2 mps 746 mmHg 68%
03:00 +6°C° 0 mm 2 mps 746 mmHg 68%
04:00 +5°C° 0 mm 2 mps 746 mmHg 68%
05:00 +6°C° 0 mm 2 mps 746 mmHg 67%
06:00 +6°C° 0 mm 2 mps 746 mmHg 65%
07:00 +6°C° 0 mm 2 mps 746 mmHg 64%
08:00 +9°C° 0 mm 1 mps 747 mmHg 55%
09:00 +11°C° 0 mm 1 mps 747 mmHg 46%
10:00 +13°C° 0 mm 1 mps 747 mmHg 37%
11:00 +14°C° 0 mm 1 mps 747 mmHg 37%
12:00 +15°C° 0 mm 2 mps 747 mmHg 38%
13:00 +15°C° 0 mm 2 mps 747 mmHg 38%
14:00 +14°C° 0 mm 3 mps 747 mmHg 42%
15:00 +13°C° 0 mm 3 mps 747 mmHg 45%
16:00 +13°C° 0 mm 3 mps 746 mmHg 49%
17:00 +13°C° 0 mm 2 mps 747 mmHg 56%
18:00 +10°C° 0 mm 2 mps 747 mmHg 64%
19:00 +9°C° 0 mm 2 mps 747 mmHg 71%
20:00 +9°C° 0 mm 2 mps 747 mmHg 74%
21:00 +9°C° 0 mm 2 mps 747 mmHg 77%
22:00 +8°C° 0 mm 2 mps 747 mmHg 80%
23:00 +8°C° 0 mm 2 mps 747 mmHg 81%

12 Marzo, Viernes

Tiempo Temperatura Precipitaciones Viento Presión Humedad
00:00 +8°C° 0 mm 2 mps 746 mmHg 83%
01:00 +9°C° 0 mm 1 mps 746 mmHg 84%
02:00 +9°C° 0 mm 1 mps 746 mmHg 85%
03:00 +8°C° 0 mm 1 mps 745 mmHg 85%
04:00 +8°C° 0 mm 1 mps 745 mmHg 86%
05:00 +7°C° 0 mm 2 mps 745 mmHg 86%
06:00 +8°C° 0 mm 2 mps 745 mmHg 86%
07:00 +8°C° 0 mm 2 mps 745 mmHg 86%
08:00 +9°C° 0 mm 2 mps 745 mmHg 80%
09:00 +10°C° 0 mm 2 mps 745 mmHg 73%
10:00 +12°C° 0 mm 3 mps 745 mmHg 67%
11:00 +12°C° 0 mm 3 mps 745 mmHg 64%
12:00 +13°C° 0 mm 3 mps 745 mmHg 60%
13:00 +13°C° 0 mm 4 mps 744 mmHg 57%
14:00 +13°C° 0 mm 3 mps 744 mmHg 58%
15:00 +13°C° 0 mm 3 mps 743 mmHg 59%
16:00 +12°C° 0 mm 3 mps 743 mmHg 61%
17:00 +11°C° 0 mm 3 mps 743 mmHg 65%
18:00 +10°C° 0 mm 2 mps 742 mmHg 70%
19:00 +9°C° 0 mm 2 mps 742 mmHg 74%
20:00 +9°C° 0 mm 2 mps 742 mmHg 76%
21:00 +9°C° 0 mm 2 mps 742 mmHg 78%
22:00 +9°C° 0 mm 1 mps 743 mmHg 79%
23:00 +9°C° 0 mm 1 mps 742 mmHg 80%
Mostrar más

Necesitamos Su Consentimiento

Meteoprog y nuestros Proveedores de Servicios pueden almacenar y acceder a sus datos personales como cookies, identificadores de dispositivo u otras tecnologías similares de su dispositivo y procesar dichos datos para personalizar contenido y anuncios, además de ofrecer funciones de redes sociales y analizar el tráfico.

  • Almacenar y/o acceder a información en su dispositivo

    Se puede almacenar o acceder a cookies, identificadores de dispositivo u otra información de su dispositivo para los fines anteriormente indicados.

  • Anuncios y contenido personalizados, medición de anuncios y contenido, percepciones del público, y desarrollo de productos

    Los anuncios y el contenido pueden personalizarse en base a su perfil. Se pueden añadir más datos para personalizar mejor los anuncios y contenidos. Se puede medir el rendimiento de los anuncios y contenidos. Se puede obtener la percepción sobre el público que ha visto los anuncios y contenidos. Dichos datos pueden usarse para desarrollar o mejorar la experiencia del usuario, sistemas y software.

Al hacer clic en ‘Estoy De Acuerdo’ usted permitirá el uso de las cookies, identificadores de dispositivo, balizas web u otras tecnologías similares indicadas. Su configuración puede cambiarse desde el navegador de su dispositivo.

Para ciertos fines, los intereses legítimos pueden ser considerados por encima del consentimiento. Puede leer más sobre ello en nuestra Política de Privacidad y Cookies.